Flight Information

DEPARTURE
PORTLAND, OR
Elevation:
30
Runways:
10R/28L - 11000x150 - CONC-G
10L/28R - 9825x150 - ASPH-E
3/21 - 6000x150 - ASPH-E
ATIS:
128.35 503-493-7557
Clearance Delivery:
120.125
Ground:
121.9
Tower:
PORTLAND TOWER
123.775 RWY 03-21, 10R-28L
118.7 RWY 10L-28R
DESTINATION
,
Elevation:
TPA:
1000 (est.)


6728.6 NM65° True-19° Var46° HDG

Flight Plan:
(click to file on line)

1. Type
2. Aircraft Identification
3. Aircraft Type / Special Equipment
4. True Airspeed
kts
5. Departure Airport
(ICAO code)
6. Arriving Airport
(ICAO code)
7. Cruising Altitude
ft
8. Alternate Airport
(ICAO code)
9. Route of Flight
10. Remarks


00:00:00 Departure ATIS: Destination ATIS:

Clearance Limit:
Route:
Altitude: Expect in minutes
Frequency:
Transponder: (7500 Hijack / 7600 Lost Comms / 7700 Emergency)


KPDX 261353Z 27004KT 10SM CLR 19/12 A3000 RMK AO2 SLP156 T01940122 $
Time: 2022-06-26T13:53:00Z
1656253707
Winds: 270 @ 4 kts
Visibility: 10.0 sm
Clouds (AGL): CLR
Temperature: 19.4 C
Dew Point: 12.2 C
Pressure: 30.0 in Hgbr


Notes:

Data extracted from FAA Digital Chart Supplement. Effective: 0901Z Thursday, 27 JAN 2022 to 0900z Thursday, 24 MAR 2022
Current ATIS data is provided courtisy of PilotEdge.